Location: Fort Worth, Tx
(32.7431°N, 97.3695°W)
Time: 11:08:43
(UTC-04:00)

Tiros 1 - Pass Details

Date: 27 February 2024
Orbit: 625 x 657 km, 48.4° (Epoch: 24 April)

Event Time Altitude Azimuth Distance (km) Brightness Sun altitude
Rises 20:56:02 0° 239° (WSW) 2,955 11.5 -19.9°
Reaches altitude 10° 20:58:23 10° 243° (WSW) 2,051 10.6 -20.4°
Maximum altitude 21:03:04 60° 323° (NW) 747 7.6 -21.4°
Enters shadow 21:05:00 33° 30° (NNE) 1,091 8.1 -21.8°
